Regional Weather Roundup
Issued by NWS Northern Indiana

Home | Current Version | Previous Version | Text Only | Print | Product List | Glossary Off
Versions: 1 2 3 4 5 6 7 8 9 10 11 12 13 14 15 16 17 18 19 20 21 22 23 24 25 26 27 28 29 30 31 32 33 34 35 36 37 38 39 40 41 42 43 44 45 46 47 48 49 50

000
ASUS43 KIWX 260110
RWRIWX

KIWX WEATHER ROUNDUP
NATIONAL WEATHER SERVICE NORTHERN INDIANA
800 PM EST SAT FEB 25 2017

NOTE: "FAIR" INDICATES FEW OR NO CLOUDS BELOW 12,000 FEET WITH NO
SIGNIFICANT WEATHER AND/OR OBSTRUCTIONS TO VISIBILITY.

* THESE STATIONS ARE NOT UNDER NWS QUALITY CONTROL. THEY ALSO MAY NOT
  REPORT WEATHER SUCH AS PRECIPITATION OR FOG.

INZ001>027-260200-
NORTHERN INDIANA

CITY           SKY/WX    TMP DP  RH WIND       PRES   REMARKS
GARY*          MOCLDY    28  14  54 W14G29    30.00R WCI  17
VALPARAISO     CLOUDY    28  16  60 W15       29.99R WCI  16
MICHIGAN CITY* CLOUDY    27  18  69 W6        29.99R WCI  20
LAPORTE*       CLOUDY    26  16  65 NW8       29.98R WCI  17
KNOX*          CLOUDY    28  -4  24 W14       29.98R WCI  17
SOUTH BEND     CLOUDY    25  15  66 W12G18    29.97R WCI  14
GOSHEN         CLOUDY    25  17  72 W13       29.96R WCI  14
MONTICELLO*    CLOUDY    28  17  64 W12       30.01R WCI  17
LOGANSPORT*    CLOUDY    28  18  64 W15G22    30.01R WCI  17
ROCHESTER*     CLOUDY    30  18  59 W13G22    29.98R WCI  20
WARSAW*        FLURRIES  27  18  69 W8        29.97R WCI  18
ANGOLA*        CLOUDY    23  19  86 W9        29.92S WCI  13
FORT WAYNE     FLURRIES  27  18  69 W16G32    29.96R WCI  15
HUNTINGTON*    CLOUDY    28  17  66 W7        29.97R WCI  20
PERU/GRISSOM   CLOUDY    29  18  64 W21       29.97R WCI  15
MARION*        CLOUDY    28  21  75 W15       29.99R WCI  17

$$
INZ028>050-260200-
CENTRAL INDIANA

CITY           SKY/WX    TMP DP  RH WIND       PRES   REMARKS
LAFAYETTE      CLOUDY    28  18  66 W15G21    30.03R WCI  16
KOKOMO*        CLOUDY    29  19  66 W21       30.00  WCI  16
MUNCIE*        CLOUDY    30  17  58 W15G24    29.99R WCI  19
INDIANAPOLIS   PTCLDY    29  16  58 W12       30.02R WCI  19

$$
MIZ043>046-050>051-056>058-064>065-071>073-077>080-260200-
SOUTHWEST LOWER MICHIGAN

CITY           SKY/WX    TMP DP  RH WIND       PRES   REMARKS
BATTLE CREEK   FLURRIES  22  17  81 W9        29.93R WCI  12
BENTON HARBOR  CLOUDY    26  15  63 W12G20    29.97R WCI  16
COLDWATER*     FLURRIES  24  18  78 W9        29.93R WCI  14
HILLSDALE*     FLURRIES  23  18  80 W17G24    29.89R WCI   9
HOLLAND        FLURRIES  24  16  71 W16G22    29.94R WCI  11
GRAND RAPIDS   FLURRIES  23  17  78 W14       29.91R WCI  11
KALAMAZOO      LGT SNOW  22  15  75 NW8       29.94R WCI  12
STURGIS*       LGT SNOW  23  19  84 W8        29.94R WCI  14
THREE RIVERS*  LGT SNOW  23  19  85 W7        29.95R WCI  15

$$
OHZ001>008-015>018-024>025-260200-
NORTHWEST OHIO

CITY           SKY/WX    TMP DP  RH WIND       PRES   REMARKS
WAUSEON*       CLOUDY    27  18  69 W15G25    29.92S WCI  15
DEFIANCE       CLOUDY    27  16  63 W7        29.95R WCI  19
FINDLAY        CLOUDY    28  16  60 W14       29.94R WCI  17
TOLEDO EXPRESS CLOUDY    26  16  65 W15G23    29.92R WCI  14
TOLEDO METCALF CLOUDY    28  16  60 W17       29.93R WCI  16
LIMA           CLOUDY    27  20  75 W16       29.95R WCI  15

$$
AND FOR LAKE MICHIGAN COASTAL AND OPEN LAKE BUOY OBSERVATIONS

STATION/POSITION TEMP    WIND        PRES    VSBY  WAVE
                 AIR SEA DIR/SP/G                  HT/PER
                 (F)     (DEG/KT/KT) (MB)    (MI)  (FT/S)
CALUMET HARBOR    26     260/  6/ 11 1015.1R
MICHIGAN CITY     26     260/ 18/ 22   N/A
BURNS HARBOR      28     290/ 15/ 20 1015.9R
SAINT JOSEPH      27     280/ 16/ 21 1015.2

$$
&&




USA.gov is the U.S. government's official web portal to all federal, state and local government web resources and services.